EN

Hourly Weather Paprotki

Today, 3 March, Wednesday

Time Temperature Precipitation Wind Pressure Humidity
00:00 +4°C° 0 mm 1 mps 723 mmHg 69%
01:00 +4°C° 0 mm 1 mps 723 mmHg 67%
02:00 +4°C° 0 mm 1 mps 723 mmHg 66%
03:00 +4°C° 0 mm 1 mps 722 mmHg 64%
04:00 +3°C° 0 mm 1 mps 722 mmHg 62%
05:00 +3°C° 0 mm 1 mps 722 mmHg 63%
06:00 +3°C° 0 mm 1 mps 722 mmHg 64%
07:00 +3°C° 0 mm 1 mps 721 mmHg 65%
08:00 +5°C° 0 mm 1 mps 721 mmHg 61%
09:00 +7°C° 0 mm 1 mps 721 mmHg 57%
10:00 +8°C° 0 mm 1 mps 721 mmHg 54%
11:00 +8°C° 0 mm 2 mps 721 mmHg 53%
12:00 +9°C° 0 mm 2 mps 721 mmHg 52%
13:00 +10°C° 0 mm 2 mps 721 mmHg 51%
14:00 +9°C° 0 mm 2 mps 720 mmHg 54%
15:00 +9°C° 0 mm 2 mps 719 mmHg 57%
16:00 +9°C° 0 mm 2 mps 718 mmHg 60%
17:00 +7°C° 0 mm 2 mps 718 mmHg 66%
18:00 +6°C° 0 mm 2 mps 718 mmHg 72%
19:00 +4°C° 0 mm 2 mps 717 mmHg 78%
20:00 +4°C° 0 mm 2 mps 717 mmHg 78%
21:00 +4°C° 0 mm 2 mps 717 mmHg 78%
22:00 +4°C° 0 mm 2 mps 716 mmHg 77%
23:00 +4°C° 0 mm 2 mps 716 mmHg 79%

Tomorrow, 4 March, Thursday

Time Temperature Precipitation Wind Pressure Humidity
00:00 +4°C° 0 mm 2 mps 716 mmHg 81%
01:00 +3°C° 0 mm 2 mps 715 mmHg 83%
02:00 +3°C° 0 mm 2 mps 715 mmHg 84%
03:00 +3°C° 0 mm 2 mps 714 mmHg 86%
04:00 +3°C° 0 mm 2 mps 713 mmHg 88%
05:00 +3°C° 0 mm 2 mps 713 mmHg 89%
06:00 +2°C° 0 mm 2 mps 713 mmHg 91%
07:00 +2°C° 0 mm 2 mps 713 mmHg 92%
08:00 +4°C° 0 mm 2 mps 713 mmHg 86%
09:00 +4°C° 0 mm 3 mps 713 mmHg 80%
10:00 +7°C° 0 mm 3 mps 713 mmHg 74%
11:00 +8°C° 0 mm 3 mps 713 mmHg 70%
12:00 +8°C° 0 mm 4 mps 712 mmHg 66%
13:00 +10°C° 0 mm 4 mps 712 mmHg 63%
14:00 +9°C° 0 mm 3 mps 711 mmHg 67%
15:00 +8°C° 0 mm 3 mps 711 mmHg 72%
16:00 +8°C° 0 mm 3 mps 710 mmHg 76%
17:00 +7°C° 0.3 mm 2 mps 710 mmHg 81%
18:00 +6°C° 0.3 mm 2 mps 710 mmHg 85%
19:00 +5°C° 0.3 mm 2 mps 709 mmHg 90%
20:00 +4°C° 1.7 mm 2 mps 709 mmHg 91%
21:00 +2°C° 1.7 mm 3 mps 709 mmHg 93%
22:00 +1°C° 1.7 mm 3 mps 709 mmHg 95%
23:00 0°C° 0.3 mm 3 mps 710 mmHg 95%

Day after tomorrow, 5 March, Friday

Time Temperature Precipitation Wind Pressure Humidity
00:00 +1°C° 0.3 mm 2 mps 710 mmHg 95%
01:00 -1°C° 0.3 mm 2 mps 710 mmHg 95%
02:00 -1°C° 0.3 mm 2 mps 710 mmHg 94%
03:00 -1°C° 0.3 mm 2 mps 711 mmHg 94%
04:00 -1°C° 0.3 mm 2 mps 711 mmHg 93%
05:00 -2°C° 0.5 mm 3 mps 711 mmHg 93%
06:00 -4°C° 0.5 mm 3 mps 712 mmHg 93%
07:00 -4°C° 0.5 mm 4 mps 712 mmHg 92%
08:00 -4°C° 0.2 mm 4 mps 713 mmHg 88%
09:00 -4°C° 0.2 mm 4 mps 713 mmHg 84%
10:00 -4°C° 0.2 mm 4 mps 714 mmHg 80%
11:00 -3°C° 0 mm 4 mps 714 mmHg 75%
12:00 -3°C° 0 mm 4 mps 714 mmHg 69%
13:00 -2°C° 0 mm 4 mps 715 mmHg 64%
14:00 -3°C° 0 mm 4 mps 715 mmHg 63%
15:00 -3°C° 0 mm 4 mps 715 mmHg 62%
16:00 -3°C° 0 mm 4 mps 715 mmHg 62%
17:00 -2°C° 0 mm 3 mps 716 mmHg 67%
18:00 -3°C° 0 mm 2 mps 716 mmHg 71%
19:00 -4°C° 0 mm 2 mps 717 mmHg 76%
20:00 -4°C° 0 mm 2 mps 717 mmHg 77%
21:00 -5°C° 0 mm 2 mps 718 mmHg 77%
22:00 -5°C° 0 mm 2 mps 718 mmHg 78%
23:00 -5°C° 0 mm 2 mps 719 mmHg 79%

6 March, Saturday

Time Temperature Precipitation Wind Pressure Humidity
00:00 -6°C° 0 mm 2 mps 719 mmHg 80%
01:00 -6°C° 0 mm 2 mps 719 mmHg 81%
02:00 -6°C° 0 mm 2 mps 720 mmHg 82%
03:00 -6°C° 0 mm 2 mps 720 mmHg 83%
04:00 -6°C° 0 mm 2 mps 720 mmHg 83%
05:00 -4°C° 0 mm 1 mps 721 mmHg 83%
06:00 -4°C° 0 mm 1 mps 721 mmHg 84%
07:00 -4°C° 0 mm 1 mps 721 mmHg 84%
08:00 -3°C° 0 mm 1 mps 722 mmHg 73%
09:00 -2°C° 0 mm 1 mps 722 mmHg 63%
10:00 -1°C° 0 mm 1 mps 723 mmHg 52%
11:00 -2°C° 0 mm 2 mps 723 mmHg 48%
12:00 -1°C° 0 mm 2 mps 723 mmHg 45%
13:00 -1°C° 0 mm 2 mps 722 mmHg 41%
14:00 -1°C° 0 mm 2 mps 722 mmHg 43%
15:00 -1°C° 0 mm 2 mps 722 mmHg 44%
16:00 -1°C° 0 mm 2 mps 721 mmHg 46%
17:00 -2°C° 0 mm 2 mps 721 mmHg 52%
18:00 -3°C° 0 mm 2 mps 721 mmHg 58%
19:00 -2°C° 0 mm 1 mps 720 mmHg 64%
20:00 -3°C° 0 mm 1 mps 720 mmHg 65%
21:00 -3°C° 0 mm 1 mps 720 mmHg 65%
22:00 -3°C° 0 mm 1 mps 720 mmHg 65%
23:00 -3°C° 0 mm 1 mps 720 mmHg 66%

7 March, Sunday

Time Temperature Precipitation Wind Pressure Humidity
00:00 -5°C° 0 mm 2 mps 719 mmHg 66%
01:00 -5°C° 0 mm 2 mps 719 mmHg 66%
02:00 -5°C° 0 mm 2 mps 718 mmHg 66%
03:00 -5°C° 0 mm 2 mps 718 mmHg 66%
04:00 -5°C° 0 mm 2 mps 717 mmHg 66%
05:00 -5°C° 0 mm 2 mps 717 mmHg 65%
06:00 -5°C° 0 mm 2 mps 717 mmHg 64%
07:00 -5°C° 0 mm 2 mps 716 mmHg 63%
08:00 -4°C° 0 mm 2 mps 716 mmHg 57%
09:00 -2°C° 0 mm 3 mps 716 mmHg 51%
10:00 0°C° 0 mm 3 mps 716 mmHg 45%
11:00 0°C° 0 mm 3 mps 716 mmHg 43%
12:00 +1°C° 0 mm 3 mps 715 mmHg 42%
13:00 +1°C° 0 mm 4 mps 715 mmHg 41%
14:00 +2°C° 0 mm 3 mps 714 mmHg 43%
15:00 +2°C° 0 mm 3 mps 714 mmHg 45%
16:00 +2°C° 0 mm 3 mps 713 mmHg 47%
17:00 0°C° 0 mm 3 mps 713 mmHg 53%
18:00 -1°C° 0 mm 2 mps 713 mmHg 59%
19:00 -2°C° 0 mm 2 mps 712 mmHg 65%
20:00 -3°C° 0 mm 2 mps 712 mmHg 68%
21:00 -3°C° 0 mm 2 mps 712 mmHg 70%
22:00 -3°C° 0 mm 2 mps 712 mmHg 72%
23:00 -4°C° 0 mm 2 mps 712 mmHg 77%

8 March, Monday

Time Temperature Precipitation Wind Pressure Humidity
00:00 -4°C° 0 mm 2 mps 712 mmHg 81%
01:00 -5°C° 0 mm 3 mps 712 mmHg 85%
02:00 -4°C° 0.1 mm 2 mps 712 mmHg 87%
03:00 -4°C° 0.1 mm 2 mps 713 mmHg 89%
04:00 -4°C° 0.1 mm 2 mps 713 mmHg 92%
05:00 -4°C° 0.2 mm 2 mps 713 mmHg 91%
06:00 -5°C° 0.2 mm 2 mps 714 mmHg 91%
07:00 -5°C° 0.2 mm 2 mps 714 mmHg 91%
08:00 -4°C° 0 mm 2 mps 715 mmHg 82%
09:00 -5°C° 0 mm 3 mps 715 mmHg 74%
10:00 -4°C° 0 mm 3 mps 716 mmHg 65%
11:00 -4°C° 0 mm 3 mps 716 mmHg 62%
12:00 -2°C° 0 mm 3 mps 716 mmHg 58%
13:00 -2°C° 0 mm 3 mps 717 mmHg 54%
14:00 -2°C° 0 mm 3 mps 717 mmHg 54%
15:00 -2°C° 0 mm 3 mps 716 mmHg 53%
16:00 -2°C° 0 mm 3 mps 716 mmHg 53%
17:00 -4°C° 0 mm 3 mps 717 mmHg 59%
18:00 -4°C° 0 mm 2 mps 717 mmHg 65%
19:00 -6°C° 0 mm 2 mps 717 mmHg 71%
20:00 -6°C° 0 mm 2 mps 717 mmHg 71%
21:00 -6°C° 0 mm 2 mps 717 mmHg 71%
22:00 -6°C° 0 mm 2 mps 718 mmHg 72%
23:00 -6°C° 0 mm 2 mps 718 mmHg 72%
Show more

We Need Your Consent

Meteoprog and our Service Providers may store and access personal data such as cookies, device identifiers or other similar technologies on your device and process such data to personalise content and ads, as well as provide social media features and to analyse the traffic.

  • Store and/or access information on your device

    Cookies, device identifiers or other information can be stored or accessed on your device for the purposes indicated above.

  • Personalised ads and content, ad and content measurement, audience insights, and products development

    Ads and content can be personalised based on a profile. More data can be added to better personalise ads and content. Ad and content performance can be measured. Insights about the audience who saw the ads and content can be derived. Such data can be used to develop or improve user’s experience, systems and software.

By clicking ‘I Agree’ you will allow the use of indicated cookies, device identifiers, web beacons or other similar technologies. Your settings can be changed in the browser on your device.

For certain purposes, legitimate interests may be relied on, rather than consent. You can read more about this in our Privacy and Cookie Policy.